Regional Weather Roundup
Issued by NWS

Home | Current Version | Previous Version | Text Only | Print | Product List | Glossary On
Versions: 1 2 3 4 5 6 7 8 9 10 11 12 13 14 15 16 17 18 19 20 21 22 23 24 25 26 27 28 29 30 31 32 33 34 35 36 37 38 39 40 41 42 43 44 45 46 47 48 49 50
000
ASUS43 KLMK 241610
RWRKY
KENTUCKY REGIONAL WEATHER ROUNDUP
NATIONAL WEATHER SERVICE LOUISVILLE KY
1100 AM EST MON NOV 24 2014

NOTE "FAIR" INDICATES FEW OR NO CLOUDS BELOW 12,000 FEET
WITH NO SIGNIFICANT WEATHER AND/OR OBSTRUCTIONS TO VISIBILITY.

KYZ001>023-026-027-061>063-070>075-241700-
WESTERN AND SOUTH CENTRAL KENTUCKY

CITY           SKY/WX    TMP DP  RH WIND       PRES   REMARKS
PADUCAH        CLOUDY    46  35  65 SW21      29.74R
HENDERSON      CLOUDY    45  34  65 W20G35    29.69R
OWENSBORO      PTSUNNY   47  38  71 W21G29    29.69R
HOPKINSVILLE   CLOUDY    49  42  76 W22       29.74R
BOWLING GREEN  LGT RAIN  53  43  68 W15G33    29.71R
GLASGOW        PTSUNNY   55  43  63 W32G44    29.68R
$$

KYZ024-025-028>034-038-045-046-053-241700-
NORTH CENTRAL KENTUCKY

CITY           SKY/WX    TMP DP  RH WIND       PRES   REMARKS
LOUISVILLE/SDF CLOUDY    50  43  77 W29G40    29.59R
LOUISVILLE/LOU CLOUDY    50  43  77 W26G35    29.60R
FORT KNOX      LGT RAIN  48  45  87 SW20G25   29.62R
$$

KYZ035>037-039>044-047>052-055>060-089>105-241700-
NORTHEAST KENTUCKY

CITY           SKY/WX    TMP DP  RH WIND       PRES   REMARKS
LEXINGTON      LGT RAIN  55  50  83 SW23G39   29.54R
COVINGTON      PTSUNNY   55  46  71 SW25G43   29.46R
FRANKFORT      CLOUDY    58  45  62 SW22G49   29.53R
$$

KYZ054-064>069-076>088-106>120-241700-
SOUTHEAST KENTUCKY

CITY           SKY/WX    TMP DP  RH WIND       PRES   REMARKS
JACKSON        PTSUNNY   67  46  47 MISG      29.57R
LONDON         PTSUNNY   67  47  48 SW26G41   29.61R
SOMERSET       MOSUNNY   61  43  51 SW28G43   29.64R
MIDDLESBORO    PTSUNNY   65  51  60 SW17G26   29.67R
MONTICELLO     MOSUNNY   64  46  52 SW30G39   29.67R
$$



USA.gov is the U.S. government's official web portal to all federal, state and local government web resources and services.